Location: Ash Shall?l al Awwal
(24.0167°N, 32.8667°E)
Time: 04:40:50
(UTC+00:00)

Cosmos 1862 Rocket - Pass Details

Date: 02 March 2021
Orbit: 603 x 634 km, 82.5° (Epoch: 12 April)

Event Time Altitude Azimuth Distance (km) Brightness Sun altitude
Rises 17:11:21 0° 348° (NNW) 2,926 7.2 -18.9°
Reaches altitude 10° 17:13:37 10° 345° (NNW) 2,014 6.4 -19.5°
Maximum altitude 17:18:00 56° 267° (W) 750 4.3 -20.5°
Drops below altitude 10° 17:22:20 10° 189° (S) 1,994 6.2 -21.4°
Sets 17:24:34 0° 185° (S) 2,893 7.0 -22.0°
